Regional Weather Roundup
Issued by NWS

Home | Current Version | Previous Version | Text Only | Print | Product List | Glossary Off
Versions: 1 2 3 4 5 6 7 8 9 10 11 12 13 14 15 16 17 18 19 20 21 22 23 24 25 26 27 28 29 30 31 32 33 34 35 36 37 38 39 40 41 42 43 44 45 46 47 48 49 50

000
ASUS43 KDMX 292203
RWRIA

WEATHER ROUNDUP FOR IOWA
NATIONAL WEATHER SERVICE DES MOINES IA
500 PM CDT FRI APR 29 2016

NOTE: "FAIR" INDICATES FEW OR NO CLOUDS BELOW 12,000 FEET WITH NO
SIGNIFICANT WEATHER AND/OR OBSTRUCTIONS TO VISIBILITY.

* - THESE STATIONS ARE NOT NWS STATIONS...THUS NOT UNDER NWS
QUALITY CONTROL.  THEY ALSO DO NOT REPORT WEATHER SUCH
AS PRECIPITATION OR FOG.

IAZ001>003-012>014-020>022-031>034-043>046-292300-
   NORTHWEST IOWA

CITY           SKY/WX    TMP DP  RH WIND       PRES   REMARKS
CARROLL *      CLOUDY    48  41  76 NE15      30.06F
CHEROKEE *     CLOUDY    46  41  81 E8        30.10F
DENISON *      CLOUDY    46  43  87 E12       30.04F
LE MARS *      CLOUDY    46  39  76 E13       30.09F
ORANGE CITY *  CLOUDY    46  39  76 E9G16     30.09F
SHELDON *      CLOUDY    48  41  76 E13       30.08F
SIOUX CITY     CLOUDY    48  40  73 E12       30.07F
SPENCER        CLOUDY    50  38  63 E14       30.10S
STORM LAKE *   CLOUDY    45  41  87 E12       30.09S
$$

IAZ055>058-069>071-079>083-090>094-292300-
   SOUTHWEST IOWA

CITY           SKY/WX    TMP DP  RH WIND       PRES   REMARKS
ATLANTIC *     CLOUDY    50  43  76 E10       30.05R
AUDUBON *      MOSUNNY   46  43  87 NE10      30.06S
CLARINDA *       N/A    N/A N/A N/A MISG        N/A
COUNCIL BLFS * CLOUDY    46  45  93 E10       30.04F
CRESTON *      CLOUDY    48  45  87 NE15      30.04R
HARLAN  *      CLOUDY    48  43  81 E9G18     30.09R
LAMONI         CLOUDY    51  44  77 E13       30.02S
RED OAK *      CLOUDY    50  45  81 NE15      30.02F
SHENANDOAH *   CLOUDY    52  46  82 E8G15     30.02S
$$

IAZ047>049-059>061-072>074-084-292300-
   CENTRAL IOWA

CITY           SKY/WX    TMP DP  RH WIND       PRES   REMARKS
AMES           CLOUDY    49  41  74 NE9       30.07F
ANKENY *       CLOUDY    50  43  76 E9        30.07R
BOONE *        CLOUDY    46  41  81 NE13      30.06F
CHARITON *     CLOUDY    50  43  76 NE13      30.04F
DES MOINES     CLOUDY    51  40  65 E9        30.06R
GRINNELL*      CLOUDY    48  41  76 NE12      30.07F
KNOXVILLE *    CLOUDY    50  41  71 E7        30.05R
MARSHALLTOWN   CLOUDY    48  41  76 E13       30.07F
NEWTON *       CLOUDY    48  43  81 NE12      30.06S
PELLA *        PTSUNNY   50  42  73 E7        30.07R
$$

IAZ004>006-015-016-023>025-035-036-292300-
   NORTH CENTRAL IOWA

CITY           SKY/WX    TMP DP  RH WIND       PRES   REMARKS
ALGONA *       CLOUDY    48  41  76 E9G15     30.11S
CLARION *      CLOUDY    48  41  76 E8        30.09F
ESTHERVILLE    CLOUDY    50  41  71 E12       30.09F
FORT DODGE *   CLOUDY    46  37  71 E9        30.09F
MASON CITY     CLOUDY    48  40  73 E9        30.11F
FOREST CITY *  CLOUDY    46  37  71 E7        30.10F
WEBSTER CITY * CLOUDY    48  41  76 E9        30.07F
IOWA FALLS *   CLOUDY    48  39  71 E9        30.10F
$$

IAZ007>011-017>019-026>030-037>042-050>054-066-292300-
   NORTHEAST IOWA

CITY           SKY/WX    TMP DP  RH WIND       PRES   REMARKS
CEDAR RAPIDS   CLOUDY    49  42  77 NE12      30.07F
CHARLES CITY * CLOUDY    48  41  76 E9        30.11F
CLINTON *      CLOUDY    49  42  77 NE9       30.11S
DECORAH *      CLOUDY    50  39  66 E9        30.10S
DUBUQUE        CLOUDY    48  39  71 E9        30.10F
MONTICELLO *   CLOUDY    50  41  71 NE7       30.10S
OELWEIN *      CLOUDY    48  39  71 E6        30.11S
WATERLOO       CLOUDY    48  39  71 NE9       30.10S
$$

IAZ064-065-067-068-078-292300-
   EAST CENTRAL IOWA

CITY           SKY/WX    TMP DP  RH WIND       PRES   REMARKS
DAVENPORT      CLOUDY    50  41  71 E10       30.10S
IOWA CITY      CLOUDY    50  42  74 NE7       30.09F
MT. PLEASANT * CLOUDY    53  46  76 NE10      30.07S
MUSCATINE *    CLOUDY    52  43  71 E10       30.08F
QUAD CITIES    CLOUDY    52  41  66 E10       30.08F
$$

IAZ062-063-075>077-085>089-095>099-292300-
   SOUTHEAST IOWA

CITY           SKY/WX    TMP DP  RH WIND       PRES   REMARKS
BURLINGTON     CLOUDY    52  45  77 NE10      30.05F
FAIRFIELD *    CLOUDY    50  43  76 E12       30.06S
FORT MADISON * CLOUDY    52  45  76 NE8       30.06F
KEOKUK *       CLOUDY    54  46  76 E10       30.04S
OSKALOOSA *    CLOUDY    50  42  74 E10       30.06S
OTTUMWA        CLOUDY    50  42  74 E9        30.05F
WASHINGTON *   CLOUDY    52  45  76 E7G14     30.08F
$$

ABBREVIATIONS USED IN REMARKS
   TC - TEMPERATURES IN CELSIUS
  WCI - WIND CHILL INDEX
   HX - HEAT INDEX
  VSB - VISIBILITY
$$





USA.gov is the U.S. government's official web portal to all federal, state and local government web resources and services.